Location: Alta
(39.2070°N, 120.8111°W)
Time: 18:17:13
(UTC+00:00)

KAITUO 1B - Visible Passes

Search period start: 28 March 2023 00:00
Search period end: 07 April 2023 00:00
Orbit: 446 x 460 km, 97.4° (Epoch: 28 March)

Date Brightness Start Highest point End Pass type
(mag) Time Alt. Az. Time Alt. Az. Time Alt. Az.
30 Mar ? 02:49:16 10° SSW 02:52:02 23° W 02:54:49 10° NW visible
01 Apr ? 03:15:23 10° WSW 03:16:35 11° W 03:17:46 10° WNW visible
04 Apr ? 03:03:49 10° SW 03:05:58 16° W 03:08:08 10° NW visible
